Gauley at Summersville (cfs) [ USA-WVR ]

Edit Gauge

Current Conditions

Reading of "n/a" = frozen gauge or gauge error.
Reading Trend Type Updated
560 cfs 5 cfs/hr Flow 01h25m

Station Description

AW Gauge ID: 8515
Source: virtual
Station: 8515
Enabled yes
Description:StreamTeam Member: Matt Muir The virtual Gauley gauge is based on the rating table published by the USGS in Oct 2003. Funding to update the rating table is no longer available. Discharge values calculated by this virtual gauge are thus calculated based on channel bed morphology as of 2003.
Calculation:$g = $gauge[1434]->getValue(GMETRIC_STAGE,0); if ($g >= 8.9) { $x=(-0.0344*pow($g,5))+(2.6808*pow($g,4))-(77.748*pow($g,3))+(1150.7*pow($g,2))-(7873.3*$g)+19890; } elseif ($g >= 7.0) { $x=(69.822*pow($g,2))-(656.23*$g)+1354.5; } elseif ($g >= 6.5) { $x=(171.43*pow($g,2))-(2104.1*$g)+6474; } else { $x=40; } $flow = $x;
Data is courtesy of AW's Stream Team program. This data is calculated based on other gauges and information provided by the Stream Team. This data, and any river data, should be used with caution.

Information

Flow

Gauge History

Times listed in GMT 24h, ET and PT hours provided for convenience Graphs in GMT. Readings of "n/a" constitute a frozen gauge or gauge error.
Reading Updated (GMT) Eastern Pacific Comment
559.50 09/30/2014 18:27:12 Sep 30 02:27 pm Sep 30 11:27 am
554.94 09/30/2014 17:27:28 Sep 30 01:27 pm Sep 30 10:27 am
554.94 09/30/2014 16:27:44 Sep 30 12:27 pm Sep 30 9:27 am
559.50 09/30/2014 15:25:52 Sep 30 11:25 am Sep 30 8:25 am
554.94 09/30/2014 14:26:08 Sep 30 10:26 am Sep 30 7:26 am
554.94 09/30/2014 13:26:24 Sep 30 09:26 am Sep 30 6:26 am
559.50 09/30/2014 12:26:40 Sep 30 08:26 am Sep 30 5:26 am
554.94 09/30/2014 11:26:56 Sep 30 07:26 am Sep 30 4:26 am
559.50 09/30/2014 10:27:12 Sep 30 06:27 am Sep 30 3:27 am
559.50 09/30/2014 09:27:28 Sep 30 05:27 am Sep 30 2:27 am
559.50 09/30/2014 07:25:52 Sep 30 03:25 am Sep 30 12:25 am
559.50 09/30/2014 06:26:08 Sep 30 02:26 am Sep 29 11:26 pm
554.94 09/30/2014 05:26:24 Sep 30 01:26 am Sep 29 10:26 pm
554.94 09/30/2014 04:26:40 Sep 30 12:26 am Sep 29 9:26 pm
559.50 09/30/2014 03:26:56 Sep 29 11:26 pm Sep 29 8:26 pm
564.08 09/30/2014 01:27:28 Sep 29 09:27 pm Sep 29 6:27 pm
564.08 09/29/2014 23:25:52 Sep 29 07:25 pm Sep 29 4:25 pm
564.08 09/29/2014 22:26:08 Sep 29 06:26 pm Sep 29 3:26 pm
577.88 09/29/2014 21:26:24 Sep 29 05:26 pm Sep 29 2:26 pm
1267.63 09/29/2014 19:26:56 Sep 29 03:26 pm Sep 29 12:26 pm
1444.00 09/29/2014 18:27:12 Sep 29 02:27 pm Sep 29 11:27 am
2005.66 09/29/2014 17:27:28 Sep 29 01:27 pm Sep 29 10:27 am
2745.25 09/29/2014 16:27:44 Sep 29 12:27 pm Sep 29 9:27 am
2735.52 09/29/2014 15:25:52 Sep 29 11:25 am Sep 29 8:25 am
2735.52 09/29/2014 14:26:08 Sep 29 10:26 am Sep 29 7:26 am
2716.10 09/29/2014 13:26:24 Sep 29 09:26 am Sep 29 6:26 am
2716.10 09/29/2014 12:26:40 Sep 29 08:26 am Sep 29 5:26 am
2696.74 09/29/2014 11:26:56 Sep 29 07:26 am Sep 29 4:26 am
1938.14 09/29/2014 10:27:12 Sep 29 06:27 am Sep 29 3:27 am
763.65 09/29/2014 09:27:28 Sep 29 05:27 am Sep 29 2:27 am
722.86 09/29/2014 08:27:44 Sep 29 04:27 am Sep 29 1:27 am
727.91 09/29/2014 07:25:52 Sep 29 03:25 am Sep 29 12:25 am
727.91 09/29/2014 06:26:08 Sep 29 02:26 am Sep 28 11:26 pm
727.91 09/29/2014 05:26:24 Sep 29 01:26 am Sep 28 10:26 pm
722.86 09/29/2014 04:26:40 Sep 29 12:26 am Sep 28 9:26 pm
712.81 09/29/2014 01:27:28 Sep 28 09:27 pm Sep 28 6:27 pm
727.91 09/28/2014 23:25:52 Sep 28 07:25 pm Sep 28 4:25 pm
717.83 09/28/2014 22:26:08 Sep 28 06:26 pm Sep 28 3:26 pm
727.91 09/28/2014 21:26:24 Sep 28 05:26 pm Sep 28 2:26 pm
1488.06 09/28/2014 19:26:56 Sep 28 03:26 pm Sep 28 12:26 pm
2005.66 09/28/2014 18:27:12 Sep 28 02:27 pm Sep 28 11:27 am
2696.74 09/28/2014 17:27:28 Sep 28 01:27 pm Sep 28 10:27 am
2745.25 09/28/2014 15:25:52 Sep 28 11:25 am Sep 28 8:25 am
2735.52 09/28/2014 14:26:08 Sep 28 10:26 am Sep 28 7:26 am
2725.80 09/28/2014 12:26:40 Sep 28 08:26 am Sep 28 5:26 am
2735.52 09/28/2014 11:26:56 Sep 28 07:26 am Sep 28 4:26 am
2716.10 09/28/2014 10:27:12 Sep 28 06:27 am Sep 28 3:27 am
1765.88 09/28/2014 09:27:28 Sep 28 05:27 am Sep 28 2:27 am
753.37 09/28/2014 08:27:44 Sep 28 04:27 am Sep 28 1:27 am
727.91 09/28/2014 07:25:52 Sep 28 03:25 am Sep 28 12:25 am
722.86 09/28/2014 06:26:08 Sep 28 02:26 am Sep 27 11:26 pm
727.91 09/28/2014 05:26:24 Sep 28 01:26 am Sep 27 10:26 pm
722.86 09/28/2014 04:26:40 Sep 28 12:26 am Sep 27 9:26 pm
717.83 09/28/2014 02:27:12 Sep 27 10:27 pm Sep 27 7:27 pm
727.91 09/28/2014 01:27:28 Sep 27 09:27 pm Sep 27 6:27 pm
722.86 09/27/2014 23:25:52 Sep 27 07:25 pm Sep 27 4:25 pm
722.86 09/27/2014 22:26:08 Sep 27 06:26 pm Sep 27 3:26 pm
727.91 09/27/2014 21:26:24 Sep 27 05:26 pm Sep 27 2:26 pm
1187.27 09/27/2014 20:26:40 Sep 27 04:26 pm Sep 27 1:26 pm
1488.06 09/27/2014 19:26:56 Sep 27 03:26 pm Sep 27 12:26 pm
1997.16 09/27/2014 18:27:12 Sep 27 02:27 pm Sep 27 11:27 am
2716.10 09/27/2014 17:27:28 Sep 27 01:27 pm Sep 27 10:27 am
2735.52 09/27/2014 16:27:44 Sep 27 12:27 pm Sep 27 9:27 am
2725.80 09/27/2014 15:25:52 Sep 27 11:25 am Sep 27 8:25 am
2725.80 09/27/2014 14:26:08 Sep 27 10:26 am Sep 27 7:26 am
2725.80 09/27/2014 13:26:24 Sep 27 09:26 am Sep 27 6:26 am
2735.52 09/27/2014 11:26:56 Sep 27 07:26 am Sep 27 4:26 am
2696.74 09/27/2014 10:27:12 Sep 27 06:27 am Sep 27 3:27 am
1938.14 09/27/2014 09:27:28 Sep 27 05:27 am Sep 27 2:27 am
768.81 09/27/2014 08:27:44 Sep 27 04:27 am Sep 27 1:27 am
722.86 09/27/2014 07:25:52 Sep 27 03:25 am Sep 27 12:25 am
722.86 09/27/2014 06:26:08 Sep 27 02:26 am Sep 26 11:26 pm
722.86 09/27/2014 05:26:24 Sep 27 01:26 am Sep 26 10:26 pm
722.86 09/27/2014 04:26:40 Sep 27 12:26 am Sep 26 9:26 pm
717.83 09/27/2014 02:27:12 Sep 26 10:27 pm Sep 26 7:27 pm
722.86 09/27/2014 01:27:28 Sep 26 09:27 pm Sep 26 6:27 pm
717.83 09/26/2014 23:25:52 Sep 26 07:25 pm Sep 26 4:25 pm
722.86 09/26/2014 22:26:08 Sep 26 06:26 pm Sep 26 3:26 pm
717.83 09/26/2014 21:26:24 Sep 26 05:26 pm Sep 26 2:26 pm
712.81 09/26/2014 20:26:40 Sep 26 04:26 pm Sep 26 1:26 pm
1260.83 09/26/2014 19:26:56 Sep 26 03:26 pm Sep 26 12:26 pm
1480.67 09/26/2014 18:27:12 Sep 26 02:27 pm Sep 26 11:27 am
1980.22 09/26/2014 17:27:28 Sep 26 01:27 pm Sep 26 10:27 am
2706.41 09/26/2014 16:27:44 Sep 26 12:27 pm Sep 26 9:27 am
2725.80 09/26/2014 15:25:52 Sep 26 11:25 am Sep 26 8:25 am
2735.52 09/26/2014 14:26:08 Sep 26 10:26 am Sep 26 7:26 am
2716.10 09/26/2014 13:26:24 Sep 26 09:26 am Sep 26 6:26 am
2725.80 09/26/2014 12:26:40 Sep 26 08:26 am Sep 26 5:26 am
2696.74 09/26/2014 11:26:56 Sep 26 07:26 am Sep 26 4:26 am
1790.04 09/26/2014 10:27:12 Sep 26 06:27 am Sep 26 3:27 am
768.81 09/26/2014 09:27:28 Sep 26 05:27 am Sep 26 2:27 am
554.94 09/26/2014 08:27:44 Sep 26 04:27 am Sep 26 1:27 am
554.94 09/26/2014 07:25:52 Sep 26 03:25 am Sep 26 12:25 am
554.94 09/26/2014 06:26:08 Sep 26 02:26 am Sep 25 11:26 pm
559.50 09/26/2014 05:26:24 Sep 26 01:26 am Sep 25 10:26 pm
554.94 09/26/2014 04:26:40 Sep 26 12:26 am Sep 25 9:26 pm
554.94 09/26/2014 02:27:12 Sep 25 10:27 pm Sep 25 7:27 pm
559.50 09/26/2014 01:27:28 Sep 25 09:27 pm Sep 25 6:27 pm
559.50 09/25/2014 23:25:52 Sep 25 07:25 pm Sep 25 4:25 pm
554.94 09/25/2014 22:26:08 Sep 25 06:26 pm Sep 25 3:26 pm
559.50 09/25/2014 21:26:24 Sep 25 05:26 pm Sep 25 2:26 pm
554.94 09/25/2014 20:26:40 Sep 25 04:26 pm Sep 25 1:26 pm
554.94 09/25/2014 19:26:56 Sep 25 03:26 pm Sep 25 12:26 pm
554.94 09/25/2014 18:27:12 Sep 25 02:27 pm Sep 25 11:27 am
559.50 09/25/2014 17:27:28 Sep 25 01:27 pm Sep 25 10:27 am
559.50 09/25/2014 16:27:44 Sep 25 12:27 pm Sep 25 9:27 am
559.50 09/25/2014 15:25:52 Sep 25 11:25 am Sep 25 8:25 am
559.50 09/25/2014 14:26:08 Sep 25 10:26 am Sep 25 7:26 am
554.94 09/25/2014 13:26:24 Sep 25 09:26 am Sep 25 6:26 am
554.94 09/25/2014 12:26:40 Sep 25 08:26 am Sep 25 5:26 am
554.94 09/25/2014 11:26:56 Sep 25 07:26 am Sep 25 4:26 am
559.50 09/25/2014 10:27:12 Sep 25 06:27 am Sep 25 3:27 am
554.94 09/25/2014 09:27:28 Sep 25 05:27 am Sep 25 2:27 am
559.50 09/25/2014 08:27:44 Sep 25 04:27 am Sep 25 1:27 am
554.94 09/25/2014 07:25:52 Sep 25 03:25 am Sep 25 12:25 am
554.94 09/25/2014 06:26:08 Sep 25 02:26 am Sep 24 11:26 pm
554.94 09/25/2014 04:26:40 Sep 25 12:26 am Sep 24 9:26 pm
554.94 09/25/2014 03:26:56 Sep 24 11:26 pm Sep 24 8:26 pm
559.50 09/25/2014 01:27:28 Sep 24 09:27 pm Sep 24 6:27 pm
559.50 09/24/2014 23:25:52 Sep 24 07:25 pm Sep 24 4:25 pm
559.50 09/24/2014 22:26:08 Sep 24 06:26 pm Sep 24 3:26 pm
559.50 09/24/2014 21:26:24 Sep 24 05:26 pm Sep 24 2:26 pm
559.50 09/24/2014 20:26:40 Sep 24 04:26 pm Sep 24 1:26 pm
559.50 09/24/2014 19:26:56 Sep 24 03:26 pm Sep 24 12:26 pm
559.50 09/24/2014 18:27:12 Sep 24 02:27 pm Sep 24 11:27 am
559.50 09/24/2014 17:27:28 Sep 24 01:27 pm Sep 24 10:27 am
564.08 09/24/2014 16:27:44 Sep 24 12:27 pm Sep 24 9:27 am
559.50 09/24/2014 15:25:52 Sep 24 11:25 am Sep 24 8:25 am
564.08 09/24/2014 14:26:08 Sep 24 10:26 am Sep 24 7:26 am
564.08 09/24/2014 13:26:24 Sep 24 09:26 am Sep 24 6:26 am
564.08 09/24/2014 12:26:40 Sep 24 08:26 am Sep 24 5:26 am
564.08 09/24/2014 11:26:56 Sep 24 07:26 am Sep 24 4:26 am
564.08 09/24/2014 10:27:12 Sep 24 06:27 am Sep 24 3:27 am
564.08 09/24/2014 09:27:28 Sep 24 05:27 am Sep 24 2:27 am
564.08 09/24/2014 08:27:44 Sep 24 04:27 am Sep 24 1:27 am
564.08 09/24/2014 07:25:52 Sep 24 03:25 am Sep 24 12:25 am
564.08 09/24/2014 06:26:08 Sep 24 02:26 am Sep 23 11:26 pm
564.08 09/24/2014 05:26:24 Sep 24 01:26 am Sep 23 10:26 pm
564.08 09/24/2014 04:26:40 Sep 24 12:26 am Sep 23 9:26 pm
564.08 09/24/2014 01:27:28 Sep 23 09:27 pm Sep 23 6:27 pm
568.67 09/23/2014 23:25:52 Sep 23 07:25 pm Sep 23 4:25 pm
568.67 09/23/2014 22:26:08 Sep 23 06:26 pm Sep 23 3:26 pm
568.67 09/23/2014 21:26:24 Sep 23 05:26 pm Sep 23 2:26 pm
564.08 09/23/2014 20:26:40 Sep 23 04:26 pm Sep 23 1:26 pm
568.67 09/23/2014 19:26:56 Sep 23 03:26 pm Sep 23 12:26 pm
568.67 09/23/2014 18:27:12 Sep 23 02:27 pm Sep 23 11:27 am
568.67 09/23/2014 17:27:28 Sep 23 01:27 pm Sep 23 10:27 am
564.08 09/23/2014 16:27:44 Sep 23 12:27 pm Sep 23 9:27 am
568.67 09/23/2014 15:25:52 Sep 23 11:25 am Sep 23 8:25 am
568.67 09/23/2014 14:26:08 Sep 23 10:26 am Sep 23 7:26 am
568.67 09/23/2014 13:26:24 Sep 23 09:26 am Sep 23 6:26 am
568.67 09/23/2014 12:26:40 Sep 23 08:26 am Sep 23 5:26 am
568.67 09/23/2014 11:26:56 Sep 23 07:26 am Sep 23 4:26 am
568.67 09/23/2014 10:27:12 Sep 23 06:27 am Sep 23 3:27 am
568.67 09/23/2014 09:27:28 Sep 23 05:27 am Sep 23 2:27 am
564.08 09/23/2014 08:27:44 Sep 23 04:27 am Sep 23 1:27 am
564.08 09/23/2014 07:25:52 Sep 23 03:25 am Sep 23 12:25 am
559.50 09/23/2014 06:26:08 Sep 23 02:26 am Sep 22 11:26 pm
559.50 09/23/2014 05:26:24 Sep 23 01:26 am Sep 22 10:26 pm
564.08 09/23/2014 04:26:40 Sep 23 12:26 am Sep 22 9:26 pm
559.50 09/23/2014 03:26:56 Sep 22 11:26 pm Sep 22 8:26 pm
568.67 09/23/2014 01:27:28 Sep 22 09:27 pm Sep 22 6:27 pm
568.67 09/22/2014 23:25:52 Sep 22 07:25 pm Sep 22 4:25 pm
568.67 09/22/2014 22:26:08 Sep 22 06:26 pm Sep 22 3:26 pm
712.81 09/22/2014 21:26:24 Sep 22 05:26 pm Sep 22 2:26 pm
1267.63 09/22/2014 20:26:40 Sep 22 04:26 pm Sep 22 1:26 pm
1458.61 09/22/2014 19:26:56 Sep 22 03:26 pm Sep 22 12:26 pm
1963.34 09/22/2014 18:27:12 Sep 22 02:27 pm Sep 22 11:27 am
2696.74 09/22/2014 17:27:28 Sep 22 01:27 pm Sep 22 10:27 am
2706.41 09/22/2014 16:27:44 Sep 22 12:27 pm Sep 22 9:27 am
2696.74 09/22/2014 15:25:52 Sep 22 11:25 am Sep 22 8:25 am
2706.41 09/22/2014 14:26:08 Sep 22 10:26 am Sep 22 7:26 am
2706.41 09/22/2014 13:26:24 Sep 22 09:26 am Sep 22 6:26 am
2706.41 09/22/2014 12:26:40 Sep 22 08:26 am Sep 22 5:26 am
2658.19 09/22/2014 11:26:56 Sep 22 07:26 am Sep 22 4:26 am
1929.77 09/22/2014 10:27:12 Sep 22 06:27 am Sep 22 3:27 am
810.60 09/22/2014 09:27:28 Sep 22 05:27 am Sep 22 2:27 am
743.14 09/22/2014 08:27:44 Sep 22 04:27 am Sep 22 1:27 am
738.05 09/22/2014 07:25:52 Sep 22 03:25 am Sep 22 12:25 am
743.14 09/22/2014 06:26:08 Sep 22 02:26 am Sep 21 11:26 pm
743.14 09/22/2014 05:26:24 Sep 22 01:26 am Sep 21 10:26 pm
743.14 09/22/2014 04:26:40 Sep 22 12:26 am Sep 21 9:26 pm
743.14 09/22/2014 03:26:56 Sep 21 11:26 pm Sep 21 8:26 pm
753.37 09/22/2014 01:27:28 Sep 21 09:27 pm Sep 21 6:27 pm
753.37 09/21/2014 23:25:52 Sep 21 07:25 pm Sep 21 4:25 pm
789.59 09/21/2014 22:26:08 Sep 21 06:26 pm Sep 21 3:26 pm
930.13 09/21/2014 21:26:24 Sep 21 05:26 pm Sep 21 2:26 pm
1473.30 09/21/2014 20:26:40 Sep 21 04:26 pm Sep 21 1:26 pm
2005.66 09/21/2014 19:26:56 Sep 21 03:26 pm Sep 21 12:26 pm
2706.41 09/21/2014 18:27:12 Sep 21 02:27 pm Sep 21 11:27 am
2706.41 09/21/2014 17:27:28 Sep 21 01:27 pm Sep 21 10:27 am
2706.41 09/21/2014 16:27:44 Sep 21 12:27 pm Sep 21 9:27 am
2706.41 09/21/2014 15:25:52 Sep 21 11:25 am Sep 21 8:25 am
2706.41 09/21/2014 14:26:08 Sep 21 10:26 am Sep 21 7:26 am
2687.08 09/21/2014 13:26:24 Sep 21 09:26 am Sep 21 6:26 am
2716.10 09/21/2014 12:26:40 Sep 21 08:26 am Sep 21 5:26 am
2696.74 09/21/2014 11:26:56 Sep 21 07:26 am Sep 21 4:26 am
2677.44 09/21/2014 10:27:12 Sep 21 06:27 am Sep 21 3:27 am
1921.42 09/21/2014 09:27:28 Sep 21 05:27 am Sep 21 2:27 am
789.59 09/21/2014 08:27:44 Sep 21 04:27 am Sep 21 1:27 am
738.05 09/21/2014 07:25:52 Sep 21 03:25 am Sep 21 12:25 am
738.05 09/21/2014 06:26:08 Sep 21 02:26 am Sep 20 11:26 pm
738.05 09/21/2014 05:26:24 Sep 21 01:26 am Sep 20 10:26 pm
732.98 09/21/2014 04:26:40 Sep 21 12:26 am Sep 20 9:26 pm
732.98 09/20/2014 23:25:52 Sep 20 07:25 pm Sep 20 4:25 pm
732.98 09/20/2014 22:26:08 Sep 20 06:26 pm Sep 20 3:26 pm
1240.53 09/20/2014 21:26:24 Sep 20 05:26 pm Sep 20 2:26 pm
1458.61 09/20/2014 20:26:40 Sep 20 04:26 pm Sep 20 1:26 pm
1988.68 09/20/2014 19:26:56 Sep 20 03:26 pm Sep 20 12:26 pm
2687.08 09/20/2014 18:27:12 Sep 20 02:27 pm Sep 20 11:27 am
2696.74 09/20/2014 17:27:28 Sep 20 01:27 pm Sep 20 10:27 am
2687.08 09/20/2014 16:27:44 Sep 20 12:27 pm Sep 20 9:27 am
2706.41 09/20/2014 15:25:52 Sep 20 11:25 am Sep 20 8:25 am
2687.08 09/20/2014 14:26:08 Sep 20 10:26 am Sep 20 7:26 am
2696.74 09/20/2014 13:26:24 Sep 20 09:26 am Sep 20 6:26 am
2696.74 09/20/2014 12:26:40 Sep 20 08:26 am Sep 20 5:26 am
2706.41 09/20/2014 11:26:56 Sep 20 07:26 am Sep 20 4:26 am
2648.60 09/20/2014 10:27:12 Sep 20 06:27 am Sep 20 3:27 am
1946.52 09/20/2014 09:27:28 Sep 20 05:27 am Sep 20 2:27 am
779.17 09/20/2014 08:27:44 Sep 20 04:27 am Sep 20 1:27 am
707.80 09/20/2014 07:25:52 Sep 20 03:25 am Sep 20 12:25 am
702.81 09/20/2014 06:26:08 Sep 20 02:26 am Sep 19 11:26 pm
707.80 09/20/2014 05:26:24 Sep 20 01:26 am Sep 19 10:26 pm
707.80 09/20/2014 04:26:40 Sep 20 12:26 am Sep 19 9:26 pm
707.80 09/20/2014 02:27:12 Sep 19 10:27 pm Sep 19 7:27 pm
707.80 09/20/2014 01:27:28 Sep 19 09:27 pm Sep 19 6:27 pm
707.80 09/19/2014 23:25:52 Sep 19 07:25 pm Sep 19 4:25 pm
707.80 09/19/2014 22:26:08 Sep 19 06:26 pm Sep 19 3:26 pm
702.81 09/19/2014 21:26:24 Sep 19 05:26 pm Sep 19 2:26 pm
717.83 09/19/2014 20:26:40 Sep 19 04:26 pm Sep 19 1:26 pm
1227.10 09/19/2014 19:26:56 Sep 19 03:26 pm Sep 19 12:26 pm
1451.29 09/19/2014 18:27:12 Sep 19 02:27 pm Sep 19 11:27 am
1971.77 09/19/2014 17:27:28 Sep 19 01:27 pm Sep 19 10:27 am
2716.10 09/19/2014 16:27:44 Sep 19 12:27 pm Sep 19 9:27 am
2725.80 09/19/2014 15:25:52 Sep 19 11:25 am Sep 19 8:25 am
2725.80 09/19/2014 14:26:08 Sep 19 10:26 am Sep 19 7:26 am
2687.08 09/19/2014 13:26:24 Sep 19 09:26 am Sep 19 6:26 am
2706.41 09/19/2014 12:26:40 Sep 19 08:26 am Sep 19 5:26 am
2619.89 09/19/2014 11:26:56 Sep 19 07:26 am Sep 19 4:26 am
1879.91 09/19/2014 10:27:12 Sep 19 06:27 am Sep 19 3:27 am
773.98 09/19/2014 09:27:28 Sep 19 05:27 am Sep 19 2:27 am
564.08 09/19/2014 08:27:44 Sep 19 04:27 am Sep 19 1:27 am
554.94 09/19/2014 07:25:52 Sep 19 03:25 am Sep 19 12:25 am
559.50 09/19/2014 06:26:08 Sep 19 02:26 am Sep 18 11:26 pm
559.50 09/19/2014 05:26:24 Sep 19 01:26 am Sep 18 10:26 pm
559.50 09/19/2014 04:26:40 Sep 19 12:26 am Sep 18 9:26 pm
559.50 09/19/2014 03:26:56 Sep 18 11:26 pm Sep 18 8:26 pm
559.50 09/19/2014 01:27:28 Sep 18 09:27 pm Sep 18 6:27 pm
564.08 09/18/2014 23:25:52 Sep 18 07:25 pm Sep 18 4:25 pm
564.08 09/18/2014 22:26:08 Sep 18 06:26 pm Sep 18 3:26 pm
559.50 09/18/2014 21:26:24 Sep 18 05:26 pm Sep 18 2:26 pm
559.50 09/18/2014 20:26:40 Sep 18 04:26 pm Sep 18 1:26 pm
266.85 09/18/2014 19:26:56 Sep 18 03:26 pm Sep 18 12:26 pm
86.38 09/18/2014 18:27:12 Sep 18 02:27 pm Sep 18 11:27 am
86.38 09/18/2014 17:27:28 Sep 18 01:27 pm Sep 18 10:27 am
86.38 09/18/2014 16:27:44 Sep 18 12:27 pm Sep 18 9:27 am
86.38 09/18/2014 15:25:52 Sep 18 11:25 am Sep 18 8:25 am
86.38 09/18/2014 14:26:08 Sep 18 10:26 am Sep 18 7:26 am
86.38 09/18/2014 13:26:24 Sep 18 09:26 am Sep 18 6:26 am
86.38 09/18/2014 12:26:40 Sep 18 08:26 am Sep 18 5:26 am
86.38 09/18/2014 11:26:56 Sep 18 07:26 am Sep 18 4:26 am
86.38 09/18/2014 10:27:12 Sep 18 06:27 am Sep 18 3:27 am
86.38 09/18/2014 09:27:28 Sep 18 05:27 am Sep 18 2:27 am
86.38 09/18/2014 08:27:44 Sep 18 04:27 am Sep 18 1:27 am
86.38 09/18/2014 07:25:52 Sep 18 03:25 am Sep 18 12:25 am
86.38 09/18/2014 06:26:08 Sep 18 02:26 am Sep 17 11:26 pm
86.38 09/18/2014 05:26:24 Sep 18 01:26 am Sep 17 10:26 pm
86.38 09/18/2014 04:26:40 Sep 18 12:26 am Sep 17 9:26 pm
86.38 09/18/2014 01:27:28 Sep 17 09:27 pm Sep 17 6:27 pm
86.38 09/17/2014 23:25:52 Sep 17 07:25 pm Sep 17 4:25 pm
86.38 09/17/2014 22:26:08 Sep 17 06:26 pm Sep 17 3:26 pm
86.38 09/17/2014 21:26:24 Sep 17 05:26 pm Sep 17 2:26 pm
86.38 09/17/2014 18:27:12 Sep 17 02:27 pm Sep 17 11:27 am
86.38 09/17/2014 17:27:28 Sep 17 01:27 pm Sep 17 10:27 am
86.38 09/17/2014 16:27:44 Sep 17 12:27 pm Sep 17 9:27 am
86.38 09/17/2014 15:25:52 Sep 17 11:25 am Sep 17 8:25 am
86.38 09/17/2014 14:26:08 Sep 17 10:26 am Sep 17 7:26 am
86.38 09/17/2014 13:26:24 Sep 17 09:26 am Sep 17 6:26 am
86.38 09/17/2014 12:26:40 Sep 17 08:26 am Sep 17 5:26 am
86.38 09/17/2014 11:26:56 Sep 17 07:26 am Sep 17 4:26 am
86.38 09/17/2014 10:27:12 Sep 17 06:27 am Sep 17 3:27 am
86.38 09/17/2014 09:27:28 Sep 17 05:27 am Sep 17 2:27 am
86.38 09/17/2014 08:27:44 Sep 17 04:27 am Sep 17 1:27 am
86.38 09/17/2014 07:25:52 Sep 17 03:25 am Sep 17 12:25 am
84.22 09/17/2014 06:26:08 Sep 17 02:26 am Sep 16 11:26 pm
86.38 09/17/2014 05:26:24 Sep 17 01:26 am Sep 16 10:26 pm
84.22 09/17/2014 04:26:40 Sep 17 12:26 am Sep 16 9:26 pm
86.38 09/17/2014 01:27:28 Sep 16 09:27 pm Sep 16 6:27 pm
86.38 09/16/2014 23:25:52 Sep 16 07:25 pm Sep 16 4:25 pm
86.38 09/16/2014 22:26:08 Sep 16 06:26 pm Sep 16 3:26 pm
86.38 09/16/2014 21:26:24 Sep 16 05:26 pm Sep 16 2:26 pm
86.38 09/16/2014 20:26:40 Sep 16 04:26 pm Sep 16 1:26 pm
84.22 09/16/2014 19:26:56 Sep 16 03:26 pm Sep 16 12:26 pm
86.38 09/16/2014 18:27:12 Sep 16 02:27 pm Sep 16 11:27 am
84.22 09/16/2014 17:27:28 Sep 16 01:27 pm Sep 16 10:27 am
86.38 09/16/2014 16:27:44 Sep 16 12:27 pm Sep 16 9:27 am
86.38 09/16/2014 15:25:52 Sep 16 11:25 am Sep 16 8:25 am
90.79 09/16/2014 14:26:08 Sep 16 10:26 am Sep 16 7:26 am
90.79 09/16/2014 13:26:24 Sep 16 09:26 am Sep 16 6:26 am
90.79 09/16/2014 12:26:40 Sep 16 08:26 am Sep 16 5:26 am

Report - Reports of Related Gauges

Reports give the public a chance to report on river conditions throughout the country as well as log the history of a river.

Reports

When River/Gauge Subject Level Reporter
5y128d07h55m Gauley at Summersville (cfs) [WV] Account of 05/26/09 245 cfs Ryan Groth

Linked Reaches

Click a heading to sort. Hover over a heading for help.
River Name/Section Class Level running? Updated
Gauley [WV] 7 (Upper). Summersville Dam to Mason Branch IV-V 560 cfs
+ 5 cfs/hr
R0-
Lower Runnable
01h25m
Gauley [WV] 9 (Lower). Bucklick Branch to Swiss III-IV(V) 631 cfs
0 cfs/hr
L4-
Below Recom.
00h53m

Associated Gauges

Disclaimer Data Sources

GAULEY RIVER BELOW SUMMERSVILLE DAM, WV (AW#1434)

7.97 ft 01h23m